Tracking 19817 objects as of 18-Aug-2019
HD Live streaming from Space Station
objects crossing your sky now

THORAD DELTA 1 DEB

Track THORAD DELTA 1 DEB now!
10-day predictions


NORAD ID: 8164
Int'l Code: 1974-089AE
Perigee: 1,465.1 km
Apogee: 1,657.1 km
Inclination: 101.6 °
Period: 117.2 minutes
Semi major axis: 7932 km
RCS: 0.1159 m2 (medium)
Launch date: November 15, 1974
Source: United States (US)
Launch site: AIR FORCE WESTERN TEST RANGE (AFWTR)

Note: This is SATELLITE DEBRIS
aabbcc
Your satellite tracking list
Your tracking list is empty




NASA's NSSDC Master Catalog

Two Line Element Set (TLE):
1  8164U 74089AE  19228.66018012 -.00000054  00000-0 -10119-3 0  9999
2  8164 101.6385 125.2656 0121050 310.5847  76.9268 12.28917080  8193
Source of the keplerian elements: AFSPC